Flag for Russia Weather past 2 weeks in Yakutsk, Russia

Now
-56 °F

Fog.


Feels Like: -56 °F
Forecast: -66 / -57 °F
Wind: No wind

Location: Jakutsk

Current Time: Dec 22, 2014 at 12:58:26 AM

Latest Report: Dec 22, 2014 at 12:30 AM


Visibility: 0 mi

Pressure: 30.18 "Hg

Humidity: 48%

Dew point: -67 °F

Location of YakutskLocation

Historic Weather in Yakutsk — Graph

°F

Yakutsk temperature yesterday

Maximum temperature yesterday: -53 °F (at 12:00 AM)
Minimum temperature yesterday: -56 °F (at 5:30 AM)
Average temperature yesterday: -55 °F

Past Weeks' High & Low Weather Summary

 TemperatureHumidityPressure
High-22 °F (Dec 7, 1:00 AM)75% (Dec 6, 11:00 PM)30.54 "Hg (Dec 6, 11:00 PM)
Low-56 °F (Dec 17, 10:30 AM)48% (Dec 17, 10:00 AM)30.18 "Hg (Dec 21, 7:30 AM)
Average-45 °F60%30.35 "Hg
* Reported Dec 6 11:00 PM — Dec 21 11:30 PM, Yakutsk, Weather by CustomWeather, © 2014

Note: Actual official high and low records may vary slightly from our data, if they occured in-between our weather recording intervals... More about our weather records

Advertising

Yakutsk weather history for previous 24 hours

 ConditionsComfort  
Time TempWeatherWind HumidityBarometerVisibility
11:30 PM
Dec 21
-56 °FFog.No wind48%30.18 "Hg0 mi
11:00 PM-56 °FFog.No wind48%30.18 "Hg0 mi
10:30 PM-56 °FFog.No wind54%30.18 "Hg0 mi
10:00 PM-56 °FFog.No wind54%30.18 "Hg0 mi
9:30 PM-56 °FFog.No wind54%30.21 "Hg0 mi
9:00 PM-56 °FFog.No wind54%30.21 "Hg0 mi
8:30 PM-56 °FFog.No wind54%30.21 "Hg1 mi
8:00 PM-56 °FFog.No wind54%30.21 "Hg0 mi
7:30 PM-56 °FFog.No wind54%30.21 "Hg0 mi
7:00 PM-56 °FFog.No wind54%30.21 "Hg0 mi
6:30 PM-56 °FFog.No wind54%30.21 "Hg0 mi
6:00 PM-56 °FFog.No wind54%30.21 "Hg1 mi
5:30 PM-56 °FFog.1 mph54%30.21 "Hg0 mi
5:00 PM-56 °FFog.1 mph54%30.21 "Hg0 mi
4:30 PM-56 °FFog.1 mph54%30.21 "Hg1 mi
4:00 PM-56 °FFog.1 mph54%30.21 "Hg0 mi
3:30 PM-54 °FFog.1 mph48%30.21 "Hg0 mi
3:00 PM-56 °FFog.1 mph54%30.21 "Hg1 mi
2:30 PM-54 °FFog.1 mph48%30.18 "Hg1 mi
2:00 PM-54 °FFog.3 mph55%30.18 "Hg1 mi
1:30 PM-54 °FFog.1 mph48%30.18 "Hg1 mi
1:00 PM-54 °FFog.1 mph48%30.18 "Hg1 mi
12:30 PM-54 °FFog.1 mph48%30.18 "Hg1 mi
12:00 PM-56 °FFog.1 mph54%30.18 "Hg1 mi
11:30 AM-56 °FFog.1 mph54%30.18 "Hg1 mi
11:00 AM-56 °FFog.1 mph54%30.18 "Hg0 mi
10:30 AM-56 °FFog.1 mph54%30.18 "Hg0 mi
10:00 AM-56 °FFog.1 mph54%30.21 "Hg1 mi
9:30 AM-56 °FFog.1 mph54%30.21 "Hg1 mi
9:00 AM-56 °FFog.1 mph54%30.21 "Hg0 mi
8:30 AM-56 °FFog.1 mph54%30.21 "Hg0 mi
8:00 AM-56 °FFog.No wind54%30.18 "Hg1 mi
7:30 AM-56 °FFog.1 mph54%30.18 "Hg1 mi
6:30 AM-54 °FFog.3 mph48%30.21 "Hg1 mi
6:00 AM-56 °FFog.1 mph54%30.21 "Hg1 mi
5:30 AM-56 °FFog.3 mph54%30.21 "Hg1 mi
5:00 AM-54 °FFog.1 mph48%30.21 "Hg1 mi
4:30 AM-54 °FFog.3 mph48%30.21 "Hg1 mi
4:00 AM-54 °FFog.3 mph55%30.21 "Hg1 mi
3:30 AM-54 °FFog.1 mph55%30.21 "Hg1 mi
3:00 AM-54 °FFog.3 mph55%30.21 "Hg1 mi
2:30 AM-54 °FFog.3 mph55%30.21 "Hg1 mi
2:00 AM-54 °FFog.1 mph55%30.21 "Hg1 mi
1:30 AM-54 °FFog.No wind55%30.21 "Hg0 mi
1:00 AM-54 °FFog.1 mph55%30.21 "Hg1 mi
12:30 AM-54 °FFog.1 mph55%30.21 "Hg1 mi
12:00 AM-53 °FFog.1 mph55%30.24 "Hg1 mi
Weather by CustomWeather, © 2014

See weather overviewHow to use our weather pages